WD4CLZ Weather Reports


Display with metric or nautical units.
time (UTC)temp
F
wind
direction
speed
MPH
gust
MPH
rain 1hr
in
rain 24hr
in
rain mn
in
humidity
%
barometer
mb
20210225193351 81 340 0.0 3.0 0.00 0.28 0.00 68 1018.7
20210225191835 82 324 0.0 0.0 0.00 0.28 0.00 69 1018.9
20210225190338 81 313 0.0 0.0 0.00 0.28 0.00 69 1019.0
20210225184830 81 313 0.0 0.0 0.00 0.28 0.00 68 1019.1
20210225183346 82 313 0.0 1.0 0.00 0.28 0.00 67 1019.4
20210225181846 83 305 0.0 0.0 0.00 0.28 0.00 59 1019.6
20210225180337 83 304 0.0 0.0 0.00 0.28 0.00 56 1019.7
20210225174903 84 302 0.0 0.0 0.00 0.28 0.00 56 1019.9
20210225173339 86 302 0.0 3.0 0.00 0.28 0.00 57 1020.2
20210225171850 84 258 0.0 0.0 0.00 0.28 0.00 57 1020.5
20210225170332 85 206 0.0 4.0 0.00 0.28 0.00 55 1020.7
20210225164905 85 281 0.0 0.0 0.00 0.28 0.00 58 1020.9
20210225163344 84 280 0.0 0.0 0.00 0.28 0.00 66 1021.1
20210225161831 84 282 0.0 5.0 0.00 0.28 0.00 65 1021.3
20210225160337 83 284 0.0 6.0 0.00 0.28 0.00 70 1021.4
20210225154845 82 280 0.0 3.0 0.00 0.28 0.00 72 1021.5
20210225153347 81 299 0.0 10.0 0.00 0.28 0.00 76 1021.5
20210225151845 80 277 0.0 5.0 0.00 0.28 0.00 79 1021.5
20210225150331 79 291 1.0 7.0 0.00 0.28 0.00 80 1021.5
20210225144841 78 292 0.0 3.0 0.00 0.28 0.00 82 1021.6
20210225143333 77 285 0.0 6.0 0.00 0.28 0.00 85 1021.5
20210225141845 76 288 1.0 2.0 0.00 0.28 0.00 86 1021.3
20210225140333 74 290 0.0 4.0 0.00 0.28 0.00 86 1021.2
20210225134844 72 290 0.0 3.0 0.00 0.28 0.00 86 1021.0
20210225133329 71 309 0.0 2.0 0.00 0.28 0.00 87 1020.9
20210225131845 71 337 0.0 1.0 0.00 0.28 0.00 87 1020.7
20210225130329 70 337 0.0 1.0 0.00 0.28 0.00 87 1020.5
20210225124839 70 318 0.0 0.0 0.00 0.28 0.00 87 1020.4
20210225123331 68 319 0.0 0.0 0.00 0.28 0.00 87 1020.3
20210225121839 67 319 0.0 0.0 0.00 0.28 0.00 87 1020.2
20210225120333 67 160 0.0 0.0 0.00 0.28 0.00 87 1020.0
20210225114839 67 161 0.0 0.0 0.00 0.28 0.00 87 1019.8
20210225113330 67 161 0.0 0.0 0.00 0.28 0.00 87 1019.6
20210225111840 67 161 0.0 0.0 0.00 0.28 0.00 87 1019.4
20210225110331 67 161 0.0 0.0 0.00 0.28 0.00 87 1019.2
20210225104840 68 160 0.0 0.0 0.00 0.28 0.00 87 1019.1
20210225103332 68 160 0.0 0.0 0.00 0.28 0.00 87 1019.0
20210225101843 68 161 0.0 0.0 0.00 0.28 0.00 87 1018.9
20210225100331 68 161 0.0 0.0 0.00 0.28 0.00 87 1018.9
20210225094912 68 160 0.0 0.0 0.00 0.28 0.00 87 1018.8
20210225093334 69 161 0.0 0.0 0.00 0.28 0.00 87 1018.7
20210225091844 69 161 0.0 0.0 0.00 0.28 0.00 87 1018.7
20210225090332 69 161 0.0 0.0 0.00 0.28 0.00 87 1018.7
20210225084844 70 161 0.0 0.0 0.00 0.28 0.00 87 1018.7
20210225083329 70 161 0.0 0.0 0.00 0.28 0.00 87 1018.7
20210225081841 70 161 0.0 0.0 0.00 0.28 0.00 87 1018.8
20210225080333 70 160 0.0 0.0 0.00 0.28 0.00 87 1018.7
20210225074836 70 161 0.0 0.0 0.00 0.28 0.00 87 1018.8
20210225073330 70 161 0.0 0.0 0.00 0.28 0.00 87 1018.8
20210225071840 71 161 0.0 0.0 0.00 0.28 0.00 87 1019.0
20210225070331 71 161 0.0 0.0 0.00 0.28 0.00 87 1019.0
20210225064840 71 160 0.0 0.0 0.00 0.28 0.00 87 1019.2
20210225063334 71 161 0.0 0.0 0.00 0.28 0.00 87 1019.2
20210225061846 71 161 0.0 0.0 0.00 0.28 0.00 87 1019.2
20210225060350 71 161 0.0 0.0 0.00 0.28 0.00 87 1019.3
20210225055020 71 160 0.0 0.0 0.00 0.28 0.00 87 1019.4
20210225053342 71 161 0.0 0.0 0.01 0.28 0.00 87 1019.5
20210225051835 71 161 0.0 0.0 0.01 0.28 0.00 87 1019.5
20210225050343 72 161 0.0 0.0 0.01 0.28 0.28 87 1019.6
20210225044837 72 160 0.0 0.0 0.01 0.28 0.28 87 1019.8
20210225043347 72 161 0.0 0.0 0.00 0.27 0.27 87 1019.9
20210225041928 72 161 0.0 0.0 0.00 0.27 0.27 87 1019.9
20210225040345 73 161 0.0 0.0 0.00 0.27 0.27 87 1019.9
20210225034835 73 161 0.0 0.0 0.00 0.27 0.27 87 1019.9
20210225033416 73 160 0.0 0.0 0.00 0.27 0.27 87 1020.0
20210225031834 73 161 0.0 0.0 0.00 0.27 0.27 87 1020.2
20210225030344 74 160 0.0 0.0 0.00 0.27 0.27 87 1020.0
20210225024832 74 160 0.0 0.0 0.00 0.27 0.27 87 1019.9
20210225023339 74 161 0.0 0.0 0.00 0.27 0.27 87 1019.7
20210225021832 74 161 0.0 0.0 0.00 0.27 0.27 87 1019.6
20210225020347 74 161 0.0 0.0 0.00 0.27 0.27 87 1019.4
20210225014832 74 160 0.0 0.0 0.00 0.27 0.27 87 1019.3
20210225013344 74 161 0.0 0.0 0.00 0.27 0.27 87 1019.2
20210225011833 74 161 0.0 0.0 0.00 0.27 0.27 87 1019.1
20210225010342 74 161 0.0 0.0 0.00 0.27 0.27 87 1018.8
20210225004834 74 160 0.0 0.0 0.00 0.27 0.27 87 1018.9
20210225003349 74 161 0.0 0.0 0.04 0.27 0.27 87 1018.9
20210225001842 75 40 0.0 0.0 0.04 0.27 0.27 87 1018.9
20210225000329 75 40 0.0 0.0 0.04 0.27 0.27 86 1018.8
20210224235114 76 40 0.0 0.0 0.04 0.27 0.27 85 1018.5
20210224233332 76 38 0.0 0.0 0.00 0.23 0.23 82 1018.5
20210224231828 76 22 0.0 0.0 0.00 0.23 0.23 82 1018.3
20210224230337 76 22 0.0 0.0 0.00 0.23 0.23 82 1018.1
20210224224830 76 22 0.0 0.0 0.00 0.23 0.23 82 1018.0
20210224223341 76 22 0.0 0.0 0.00 0.23 0.23 82 1017.9
20210224221830 77 22 0.0 0.0 0.00 0.23 0.23 82 1017.8
20210224220345 77 22 0.0 0.0 0.00 0.23 0.23 82 1017.7
20210224214939 77 22 0.0 0.0 0.00 0.23 0.23 81 1017.8
20210224213340 77 22 0.0 0.0 0.00 0.23 0.23 81 1017.8
20210224211834 78 22 0.0 0.0 0.00 0.23 0.23 82 1017.8
20210224210343 76 21 0.0 0.0 0.00 0.23 0.23 86 1017.7
20210224204917 75 20 0.0 0.0 0.00 0.23 0.23 86 1017.7
20210224203347 75 21 0.0 0.0 0.03 0.23 0.23 87 1017.9
20210224201844 75 30 0.0 0.0 0.21 0.23 0.23 87 1018.1
20210224200328 74 38 0.0 0.0 0.23 0.23 0.23 87 1018.2
20210224195022 74 55 0.0 0.0 0.23 0.23 0.23 87 1018.4